linux/drivers/watchdog/
<<
>>
Prefs
Kconfig 63580 2018-10-18 07:18:20
Makefile 8043 2018-10-18 07:18:20
acquirewdt.c 8692 2018-10-18 07:18:20
advantechwdt.c 7991 2018-10-18 07:18:20
alim1535_wdt.c 10143 2018-10-18 07:18:20
alim7101_wdt.c 11174 2018-10-18 07:18:20
ar7_wdt.c 7202 2018-10-18 07:18:20
asm9260_wdt.c 9069 2018-10-18 07:18:20
aspeed_wdt.c 9676 2018-10-18 07:18:20
at91rm9200_wdt.c 7849 2018-10-18 07:18:20
at91sam9_wdt.c 10733 2018-10-18 07:18:20
at91sam9_wdt.h 1318 2018-10-18 07:18:20
ath79_wdt.c 7593 2018-10-18 07:18:20
atlas7_wdt.c 5981 2018-10-18 07:18:20
bcm2835_wdt.c 6914 2018-10-18 07:18:20
bcm47xx_wdt.c 5890 2021-08-29 15:04:50 -0700
bcm63xx_wdt.c 6921 2018-10-18 07:18:20
bcm7038_wdt.c 5439 2018-10-18 07:18:20
bcm_kona_wdt.c 9220 2018-10-18 07:18:20
booke_wdt.c 5993 2018-10-18 07:18:20
cadence_wdt.c 12863 2018-10-18 07:18:20
coh901327_wdt.c 12211 2018-10-18 07:18:20
cpu5wdt.c 6807 2018-10-18 07:18:20
cpwd.c 16142 2018-10-18 07:18:20
da9052_wdt.c 4833 2018-10-18 07:18:20
da9055_wdt.c 4142 2018-10-18 07:18:20
da9062_wdt.c 5923 2018-10-18 07:18:20
da9063_wdt.c 6215 2018-10-18 07:18:20
davinci_wdt.c 7967 2018-10-18 07:18:20
diag288_wdt.c 7659 2018-10-18 07:18:20
digicolor_wdt.c 4050 2018-10-18 07:18:20
dw_wdt.c 8969 2018-10-18 07:18:20
ebc-c384_wdt.c 4118 2018-10-18 07:18:20
ep93xx_wdt.c 3773 2018-10-18 07:18:20
eurotechwdt.c 10955 2018-10-18 07:18:20
f71808e_wdt.c 22380 2018-10-18 07:18:20
ftwdt010_wdt.c 5661 2018-10-18 07:18:20
gef_wdt.c 7672 2018-10-18 07:18:20
geodewdt.c 6603 2018-10-18 07:18:20
gpio_wdt.c 4681 2018-10-18 07:18:20
hpwdt.c 8922 2018-10-18 07:18:20
i6300esb.c 10647 2018-10-18 07:18:20
iTCO_vendor.h 719 2018-10-18 07:18:20
iTCO_vendor_support.c 11089 2018-10-18 07:18:20
iTCO_wdt.c 18045 2018-10-18 07:18:20
ib700wdt.c 8527 2018-10-18 07:18:20
ibmasr.c 9628 2018-10-18 07:18:20
ie6xx_wdt.c 8769 2018-10-18 07:18:20
imgpdc_wdt.c 9608 2018-10-18 07:18:20
imx2_wdt.c 12250 2018-10-18 07:18:20
indydog.c 4703 2018-10-18 07:18:20
intel-mid_wdt.c 4670 2018-10-18 07:18:20
intel_scu_watchdog.c 15396 2018-10-18 07:18:20
intel_scu_watchdog.h 2053 2018-10-18 07:18:20
iop_wdt.c 6030 2018-10-18 07:18:20
it8712f_wdt.c 10199 2018-10-18 07:18:20
it87_wdt.c 7893 2018-10-18 07:18:20
ixp4xx_wdt.c 4680 2018-10-18 07:18:20
jz4740_wdt.c 6249 2018-10-18 07:18:20
kempld_wdt.c 14969 2018-10-18 07:18:20
ks8695_wdt.c 7838 2018-10-18 07:18:20
lantiq_wdt.c 7513 2018-10-18 07:18:20
loongson1_wdt.c 4114 2018-10-18 07:18:20
lpc18xx_wdt.c 9331 2018-10-18 07:18:20
m54xx_wdt.c 5130 2018-10-18 07:18:20
machzwd.c 10062 2018-10-18 07:18:20
max63xx_wdt.c 7154 2018-10-18 07:18:20
max77620_wdt.c 5531 2018-10-18 07:18:20
mei_wdt.c 15213 2018-10-18 07:18:20
mena21_wdt.c 5269 2018-10-18 07:18:20
menf21bmc_wdt.c 5492 2018-10-18 07:18:20
meson_gxbb_wdt.c 5697 2018-10-18 07:18:20
meson_wdt.c 6305 2018-10-18 07:18:20
mixcomwd.c 7442 2018-10-18 07:18:20
moxart_wdt.c 4566 2018-10-18 07:18:20
mpc8xxx_wdt.c 7017 2018-10-18 07:18:20
mt7621_wdt.c 4812 2018-10-18 07:18:20
mtk_wdt.c 6377 2018-10-18 07:18:20
mtx-1_wdt.c 5950 2018-10-18 07:18:20
mv64x60_wdt.c 7825 2018-10-18 07:18:20
ni903x_wdt.c 6899 2018-10-18 07:18:20
nic7018_wdt.c 6339 2018-10-18 07:18:20
npcm_wdt.c 5868 2018-10-18 07:18:20
nuc900_wdt.c 7317 2018-10-18 07:18:20
nv_tco.c 12493 2018-10-18 07:18:20
nv_tco.h 2062 2018-10-18 07:18:20
octeon-wdt-main.c 16868 2018-10-18 07:18:20
octeon-wdt-nmi.S 2042 2021-08-29 15:04:50 -0700
of_xilinx_wdt.c 7887 2018-10-18 07:18:20
omap_wdt.c 9779 2018-10-18 07:18:20
omap_wdt.h 2300 2018-10-18 07:18:20
orion_wdt.c 16999 2018-10-18 07:18:20
pc87413_wdt.c 14375 2018-10-18 07:18:20
pcwd.c 26534 2018-10-18 07:18:20
pcwd_pci.c 20386 2018-10-18 07:18:20
pcwd_usb.c 21626 2018-10-18 07:18:20
pic32-dmt.c 5743 2018-10-18 07:18:20
pic32-wdt.c 6240 2018-10-18 07:18:20
pika_wdt.c 6901 2018-10-18 07:18:20
pnx4008_wdt.c 7247 2018-10-18 07:18:20
pnx833x_wdt.c 7250 2018-10-18 07:18:20
pretimeout_noop.c 1270 2018-10-18 07:18:20
pretimeout_panic.c 1252 2018-10-18 07:18:20
qcom-wdt.c 6550 2018-10-18 07:18:20
rave-sp-wdt.c 8344 2018-10-18 07:18:20
rc32434_wdt.c 8324 2018-10-18 07:18:20
rdc321x_wdt.c 7333 2018-10-18 07:18:20
renesas_wdt.c 7800 2018-10-18 07:18:20
retu_wdt.c 4630 2018-10-18 07:18:20
riowd.c 5716 2018-10-18 07:18:20
rn5t618_wdt.c 5299 2018-10-18 07:18:20
rt2880_wdt.c 5061 2018-10-18 07:18:20
rtd119x_wdt.c 4023 2018-10-18 07:18:20
rza_wdt.c 4909 2018-10-18 07:18:20
s3c2410_wdt.c 19667 2018-10-18 07:18:20
sa1100_wdt.c 5234 2018-10-18 07:18:20
sama5d4_wdt.c 7968 2018-10-18 07:18:20
sb_wdog.c 8737 2018-10-18 07:18:20
sbc60xxwdt.c 10359 2018-10-18 07:18:20
sbc7240_wdt.c 7049 2018-10-18 07:18:20
sbc8360.c 10039 2018-10-18 07:18:20
sbc_epx_c3.c 5119 2018-10-18 07:18:20
sbc_fitpc2_wdt.c 5377 2018-10-18 07:18:20
sbsa_gwdt.c 11305 2018-10-18 07:18:20
sc1200wdt.c 11405 2018-10-18 07:18:20
sc520_wdt.c 11087 2018-10-18 07:18:20
sch311x_wdt.c 13809 2018-10-18 07:18:20
scx200_wdt.c 6599 2018-10-18 07:18:20
shwdt.c 9311 2018-10-18 07:18:20
sirfsoc_wdt.c 5795 2018-10-18 07:18:20
smsc37b787_wdt.c 15474 2018-10-18 07:18:20
softdog.c 4654 2018-10-18 07:18:20
sp5100_tco.c 12816 2018-10-18 07:18:20
sp5100_tco.h 2307 2018-10-18 07:18:20
sp805_wdt.c 7697 2018-10-18 07:18:20
sprd_wdt.c 9999 2018-10-18 07:18:20
st_lpc_wdt.c 7256 2018-10-18 07:18:20
stm32_iwdg.c 6398 2018-10-18 07:18:20
stmp3xxx_rtc_wdt.c 4121 2018-10-18 07:18:20
sun4v_wdt.c 4600 2018-10-18 07:18:20
sunxi_wdt.c 7925 2018-10-18 07:18:20
tangox_wdt.c 5001 2018-10-18 07:18:20
tegra_wdt.c 7457 2018-10-18 07:18:20
ts4800_wdt.c 5352 2018-10-18 07:18:20
ts72xx_wdt.c 4415 2018-10-18 07:18:20
twl4030_wdt.c 3873 2018-10-18 07:18:20
txx9wdt.c 4683 2018-10-18 07:18:20
uniphier_wdt.c 6471 2018-10-18 07:18:20
ux500_wdt.c 4104 2018-10-18 07:18:20
via_wdt.c 7646 2018-10-18 07:18:20
w83627hf_wdt.c 10868 2018-10-18 07:18:20
w83877f_wdt.c 10178 2018-10-18 07:18:20
w83977f_wdt.c 12101 2018-10-18 07:18:20
wafer5823wdt.c 7264 2018-10-18 07:18:20
watchdog_core.c 10518 2018-10-18 07:18:20
watchdog_core.h 1330 2018-10-18 07:18:20
watchdog_dev.c 30140 2018-10-18 07:18:20
watchdog_pretimeout.c 4804 2018-10-18 07:18:20
watchdog_pretimeout.h 1684 2021-08-29 15:04:50 -0700
wd501p.h 1598 2018-10-18 07:18:20
wdat_wdt.c 12885 2018-10-18 07:18:20
wdrtas.c 15626 2018-10-18 07:18:20
wdt.c 15849 2018-10-18 07:18:20
wdt285.c 4856 2018-10-18 07:18:20
wdt977.c 12079 2018-10-18 07:18:20
wdt_pci.c 17676 2018-10-18 07:18:20
wm831x_wdt.c 7113 2018-10-18 07:18:20
wm8350_wdt.c 4098 2021-08-29 15:04:50 -0700
xen_wdt.c 4929 2018-10-18 07:18:20
ziirave_wdt.c 19780 2018-10-18 07:18:20
zx2967_wdt.c 7184 2018-10-18 07:18:20